Time,TemperatureF,DewpointF,PressureIn,WindDirection,WindDirectionDegrees,WindSpeedMPH,WindSpeedGustMPH,Humidity,HourlyPrecipIn,Conditions,Clouds,dailyrainin,SoftwareType,DateUTC
2013-08-26 00:06:00,66.0,-37.2,30.24,SE,135,2.7,-999.0,1,-99.99,,,0.00,Acu-Link.com,2013-08-26 04:06:00,
2013-08-26 00:21:00,65.8,-37.3,30.23,South,180,2.2,-999.0,1,-99.99,,,0.00,Acu-Link.com,2013-08-26 04:21:00,
2013-08-26 00:36:00,65.7,-37.4,30.23,South,180,2.2,-999.0,1,-99.99,,,0.00,Acu-Link.com,2013-08-26 04:36:00,
2013-08-26 00:51:00,65.7,-37.4,30.22,South,180,1.7,-999.0,1,-99.99,,,0.00,Acu-Link.com,2013-08-26 04:51:00,
2013-08-26 01:06:00,65.7,-37.4,30.23,South,180,4.7,-999.0,1,-99.99,,,0.00,Acu-Link.com,2013-08-26 05:06:00,
2013-08-26 01:22:00,65.3,-37.6,30.22,South,180,2.2,-999.0,1,-99.99,,,0.00,Acu-Link.com,2013-08-26 05:22:00,
2013-08-26 01:37:00,64.4,-38.2,30.22,South,180,1.7,-999.0,1,-99.99,,,0.00,Acu-Link.com,2013-08-26 05:37:00,
2013-08-26 01:53:00,63.9,-38.5,30.21,South,180,1.7,-999.0,1,-99.99,,,0.00,Acu-Link.com,2013-08-26 05:53:00,
2013-08-26 02:08:00,63.5,-38.7,30.21,South,180,1.7,-999.0,1,-99.99,,,0.00,Acu-Link.com,2013-08-26 06:08:00,
2013-08-26 02:23:00,63.5,-38.7,30.20,South,180,2.7,-999.0,1,-99.99,,,0.00,Acu-Link.com,2013-08-26 06:23:00,
2013-08-26 02:39:00,64.8,-37.9,30.20,South,180,4.2,-999.0,1,-99.99,,,0.00,Acu-Link.com,2013-08-26 06:39:00,
2013-08-26 02:54:00,64.8,-37.9,30.20,South,180,2.7,-999.0,1,-99.99,,,0.00,Acu-Link.com,2013-08-26 06:54:00,
2013-08-26 03:09:00,64.6,-38.1,30.20,South,180,2.7,-999.0,1,-99.99,,,0.00,Acu-Link.com,2013-08-26 07:09:00,
2013-08-26 03:25:00,64.2,-38.3,30.20,South,180,0.0,-999.0,1,-99.99,,,0.00,Acu-Link.com,2013-08-26 07:25:00,
2013-08-26 03:40:00,63.5,-38.7,30.20,South,180,2.7,-999.0,1,-99.99,,,0.00,Acu-Link.com,2013-08-26 07:40:00,
2013-08-26 03:55:00,63.5,-38.7,30.19,South,180,0.0,-999.0,1,-99.99,,,0.00,Acu-Link.com,2013-08-26 07:55:00,
2013-08-26 04:10:00,63.9,-38.5,30.19,South,180,0.0,-999.0,1,-99.99,,,0.00,Acu-Link.com,2013-08-26 08:10:00,
2013-08-26 04:25:00,63.7,-38.6,30.19,South,180,2.2,-999.0,1,-99.99,,,0.00,Acu-Link.com,2013-08-26 08:25:00,
2013-08-26 04:40:00,64.2,-38.3,30.19,South,180,1.7,-999.0,1,-99.99,,,0.00,Acu-Link.com,2013-08-26 08:40:00,
2013-08-26 04:56:00,64.4,-38.2,30.19,South,180,4.2,-999.0,1,-99.99,,,0.00,Acu-Link.com,2013-08-26 08:56:00,
2013-08-26 05:11:00,63.9,-38.5,30.19,SSW,202,4.2,-999.0,1,-99.99,,,0.00,Acu-Link.com,2013-08-26 09:11:00,
2013-08-26 05:26:00,63.5,-38.7,30.18,South,180,2.7,-999.0,1,-99.99,,,0.00,Acu-Link.com,2013-08-26 09:26:00,
2013-08-26 05:41:00,63.9,-38.5,30.18,South,180,5.8,-999.0,1,-99.99,,,0.00,Acu-Link.com,2013-08-26 09:41:00,
2013-08-26 05:57:00,63.9,-38.5,30.16,South,180,4.2,-999.0,1,-99.99,,,0.00,Acu-Link.com,2013-08-26 09:57:00,
2013-08-26 06:12:00,64.0,-38.4,30.17,SSW,202,5.3,-999.0,1,-99.99,,,0.00,Acu-Link.com,2013-08-26 10:12:00,
2013-08-26 06:27:00,64.0,-38.4,30.17,SSW,202,3.7,-999.0,1,-99.99,,,0.00,Acu-Link.com,2013-08-26 10:27:00,
2013-08-26 06:42:00,64.0,-38.4,30.17,West,270,3.2,-999.0,1,-99.99,,,0.00,Acu-Link.com,2013-08-26 10:42:00,
2013-08-26 06:58:00,63.9,-38.5,30.18,WSW,247,1.1,-999.0,1,-99.99,,,0.00,Acu-Link.com,2013-08-26 10:58:00,
2013-08-26 07:13:00,64.2,-38.3,30.18,WSW,247,3.2,-999.0,1,-99.99,,,0.00,Acu-Link.com,2013-08-26 11:13:00,
2013-08-26 07:28:00,65.1,-37.8,30.18,WSW,247,3.2,-999.0,1,-99.99,,,0.00,Acu-Link.com,2013-08-26 11:28:00,
2013-08-26 07:43:00,65.1,-37.8,30.18,West,270,1.7,-999.0,1,-99.99,,,0.00,Acu-Link.com,2013-08-26 11:43:00,
2013-08-26 07:59:00,65.7,-37.4,30.19,West,270,2.2,-999.0,1,-99.99,,,0.00,Acu-Link.com,2013-08-26 11:59:00,
2013-08-26 08:14:00,66.9,-36.7,30.19,West,270,4.7,-999.0,1,-99.99,,,0.00,Acu-Link.com,2013-08-26 12:14:00,
2013-08-26 08:29:00,68.7,-35.6,30.18,West,270,6.8,-999.0,1,-99.99,,,0.00,Acu-Link.com,2013-08-26 12:29:00,
2013-08-26 08:44:00,66.9,-36.7,30.18,West,270,6.3,-999.0,1,-99.99,,,0.00,Acu-Link.com,2013-08-26 12:44:00,
2013-08-26 09:00:00,71.2,57.5,30.18,South,180,5.8,-999.0,62,-99.99,,,0.00,Acu-Link.com,2013-08-26 13:00:00,
2013-08-26 09:15:00,72.0,18.5,30.18,South,180,5.3,-999.0,13,-99.99,,,0.00,Acu-Link.com,2013-08-26 13:15:00,
2013-08-26 09:30:00,73.4,-32.8,30.19,South,180,7.3,-999.0,1,-99.99,,,0.00,Acu-Link.com,2013-08-26 13:30:00,
2013-08-26 09:45:00,74.3,-32.2,30.19,South,180,4.7,-999.0,1,-99.99,,,0.00,Acu-Link.com,2013-08-26 13:45:00,
2013-08-26 10:00:00,75.6,-31.5,30.18,South,180,3.7,-999.0,1,-99.99,,,0.00,Acu-Link.com,2013-08-26 14:00:00,
2013-08-26 10:15:00,75.9,-31.3,30.19,South,180,2.7,-999.0,1,-99.99,,,0.00,Acu-Link.com,2013-08-26 14:15:00,
2013-08-26 10:30:00,76.8,-30.7,30.18,SSW,202,6.8,-999.0,1,-99.99,,,0.00,Acu-Link.com,2013-08-26 14:30:00,
2013-08-26 10:45:00,78.1,-30.0,30.18,South,180,3.2,-999.0,1,-99.99,,,0.00,Acu-Link.com,2013-08-26 14:45:00,
2013-08-26 11:00:00,77.5,-30.3,30.15,South,180,4.7,-999.0,1,-99.99,,,0.00,Acu-Link.com,2013-08-26 15:00:00,
2013-08-26 11:15:00,78.6,-29.7,30.15,SSW,202,5.3,-999.0,1,-99.99,,,0.00,Acu-Link.com,2013-08-26 15:15:00,
2013-08-26 11:30:00,78.6,-29.7,30.15,SW,225,4.7,-999.0,1,-99.99,,,0.00,Acu-Link.com,2013-08-26 15:30:00,
2013-08-26 11:46:00,79.3,-29.3,30.13,South,180,3.7,-999.0,1,-99.99,,,0.00,Acu-Link.com,2013-08-26 15:46:00,
2013-08-26 12:01:00,80.4,-28.6,30.13,SW,225,5.3,-999.0,1,-99.99,,,0.00,Acu-Link.com,2013-08-26 16:01:00,
2013-08-26 12:16:00,80.6,-28.5,30.12,SSW,202,4.7,-999.0,1,-99.99,,,0.00,Acu-Link.com,2013-08-26 16:16:00,
2013-08-26 12:32:00,81.1,-28.2,30.11,SSE,157,4.7,-999.0,1,-99.99,,,0.00,Acu-Link.com,2013-08-26 16:32:00,
2013-08-26 12:47:00,80.8,-28.4,30.10,SW,225,6.8,-999.0,1,-99.99,,,0.00,Acu-Link.com,2013-08-26 16:47:00,
2013-08-26 13:02:00,81.9,-27.7,30.09,SW,225,4.7,-999.0,1,-99.99,,,0.00,Acu-Link.com,2013-08-26 17:02:00,
2013-08-26 13:17:00,82.6,-27.3,30.08,WSW,247,8.9,-999.0,1,-99.99,,,0.00,Acu-Link.com,2013-08-26 17:17:00,
2013-08-26 13:32:00,83.5,-26.8,30.08,SW,225,6.3,-999.0,1,-99.99,,,0.00,Acu-Link.com,2013-08-26 17:32:00,
2013-08-26 13:48:00,83.5,-26.8,30.08,West,270,6.8,-999.0,1,-99.99,,,0.00,Acu-Link.com,2013-08-26 17:48:00,
2013-08-26 14:03:00,83.5,-26.8,30.07,SW,225,6.8,-999.0,1,-99.99,,,0.00,Acu-Link.com,2013-08-26 18:03:00,
2013-08-26 14:18:00,83.7,-26.6,30.06,WSW,247,5.3,-999.0,1,-99.99,,,0.00,Acu-Link.com,2013-08-26 18:18:00,
2013-08-26 14:33:00,84.6,-26.1,30.04,SW,225,6.3,-999.0,1,-99.99,,,0.00,Acu-Link.com,2013-08-26 18:33:00,
2013-08-26 14:48:00,84.0,-26.5,30.04,South,180,9.9,-999.0,1,-99.99,,,0.00,Acu-Link.com,2013-08-26 18:48:00,
2013-08-26 15:03:00,84.2,-26.3,30.03,SSW,202,8.3,-999.0,1,-99.99,,,0.00,Acu-Link.com,2013-08-26 19:03:00,
2013-08-26 15:18:00,83.3,-26.9,30.02,South,180,7.3,-999.0,1,-99.99,,,0.00,Acu-Link.com,2013-08-26 19:18:00,
2013-08-26 15:33:00,82.9,-27.1,30.01,SE,135,5.8,-999.0,1,-99.99,,,0.00,Acu-Link.com,2013-08-26 19:33:00,
2013-08-26 15:49:00,83.5,-26.8,30.01,South,180,8.3,-999.0,1,-99.99,,,0.00,Acu-Link.com,2013-08-26 19:49:00,
2013-08-26 16:04:00,84.6,-26.1,30.01,West,270,7.3,-999.0,1,-99.99,,,0.00,Acu-Link.com,2013-08-26 20:04:00,
2013-08-26 16:19:00,85.1,-25.8,30.01,South,180,5.3,-999.0,1,-99.99,,,0.00,Acu-Link.com,2013-08-26 20:19:00,
2013-08-26 16:34:00,84.0,-26.5,30.00,West,270,5.8,-999.0,1,-99.99,,,0.00,Acu-Link.com,2013-08-26 20:34:00,
2013-08-26 16:49:00,84.4,-26.2,29.99,SSW,202,9.4,-999.0,1,-99.99,,,0.00,Acu-Link.com,2013-08-26 20:49:00,
2013-08-26 17:04:00,83.8,-26.6,29.99,SSW,202,4.7,-999.0,1,-99.99,,,0.00,Acu-Link.com,2013-08-26 21:04:00,
2013-08-26 17:20:00,82.8,-27.2,29.98,South,180,3.7,-999.0,1,-99.99,,,0.00,Acu-Link.com,2013-08-26 21:20:00,
2013-08-26 17:35:00,82.8,-27.2,29.98,South,180,3.7,-999.0,1,-99.99,,,0.00,Acu-Link.com,2013-08-26 21:35:00,
2013-08-26 17:50:00,82.0,-27.7,29.98,South,180,4.7,-999.0,1,-99.99,,,0.00,Acu-Link.com,2013-08-26 21:50:00,
2013-08-26 18:05:00,80.8,-28.4,29.98,SSW,202,2.7,-999.0,1,-99.99,,,0.00,Acu-Link.com,2013-08-26 22:05:00,
2013-08-26 18:20:00,80.1,-28.8,29.96,SSW,202,10.9,-999.0,1,-99.99,,,0.00,Acu-Link.com,2013-08-26 22:20:00,
2013-08-26 18:36:00,79.5,-29.1,29.97,South,180,4.2,-999.0,1,-99.99,,,0.00,Acu-Link.com,2013-08-26 22:36:00,
2013-08-26 18:51:00,79.0,-29.4,29.96,West,270,2.7,-999.0,1,-99.99,,,0.00,Acu-Link.com,2013-08-26 22:51:00,
2013-08-26 19:06:00,78.3,-29.9,29.96,WNW,292,3.7,-999.0,1,-99.99,,,0.00,Acu-Link.com,2013-08-26 23:06:00,
2013-08-26 19:21:00,77.9,-30.1,29.96,South,180,4.7,-999.0,1,-99.99,,,0.00,Acu-Link.com,2013-08-26 23:21:00,
2013-08-26 19:36:00,77.2,-30.5,29.95,South,180,7.3,-999.0,1,-99.99,,,0.00,Acu-Link.com,2013-08-26 23:36:00,
2013-08-26 19:52:00,76.6,-30.9,29.95,ESE,112,3.7,-999.0,1,-99.99,,,0.00,Acu-Link.com,2013-08-26 23:52:00,
2013-08-26 20:07:00,75.9,73.1,29.95,SE,135,5.3,-999.0,91,-99.99,,,0.00,Acu-Link.com,2013-08-27 00:07:00,
2013-08-26 20:22:00,75.4,74.8,29.96,SSE,157,4.7,-999.0,98,-99.99,,,0.00,Acu-Link.com,2013-08-27 00:22:00,
2013-08-26 20:38:00,75.0,-31.8,29.95,SSE,157,6.3,-999.0,1,-99.99,,,0.00,Acu-Link.com,2013-08-27 00:38:00,
2013-08-26 20:53:00,74.5,-32.1,29.95,South,180,4.2,-999.0,1,-99.99,,,0.00,Acu-Link.com,2013-08-27 00:53:00,
2013-08-26 21:08:00,74.1,-32.4,29.97,South,180,4.2,-999.0,1,-99.99,,,0.00,Acu-Link.com,2013-08-27 01:08:00,
2013-08-26 21:23:00,73.6,-32.7,29.96,SW,225,5.8,-999.0,1,-99.99,,,0.00,Acu-Link.com,2013-08-27 01:23:00,
2013-08-26 21:39:00,73.2,-32.9,29.96,South,180,7.8,-999.0,1,-99.99,,,0.00,Acu-Link.com,2013-08-27 01:39:00,
2013-08-26 21:54:00,73.0,-33.0,29.96,South,180,6.3,-999.0,1,-99.99,,,0.00,Acu-Link.com,2013-08-27 01:54:00,
2013-08-26 22:09:00,72.7,-33.2,29.95,SSE,157,3.7,-999.0,1,-99.99,,,0.00,Acu-Link.com,2013-08-27 02:09:00,
2013-08-26 22:24:00,72.3,-33.4,29.96,SE,135,6.8,-999.0,1,-99.99,,,0.00,Acu-Link.com,2013-08-27 02:24:00,
2013-08-26 22:39:00,72.0,-33.6,29.95,SSE,157,6.8,-999.0,1,-99.99,,,0.00,Acu-Link.com,2013-08-27 02:39:00,
2013-08-26 22:54:00,71.6,-33.9,29.95,South,180,6.3,-999.0,1,-99.99,,,0.00,Acu-Link.com,2013-08-27 02:54:00,
2013-08-26 23:09:00,71.4,-34.0,29.94,SE,135,7.8,-999.0,1,-99.99,,,0.00,Acu-Link.com,2013-08-27 03:09:00,
2013-08-26 23:25:00,71.6,-33.9,29.94,ESE,112,4.2,-999.0,1,-99.99,,,0.00,Acu-Link.com,2013-08-27 03:25:00,
2013-08-26 23:40:00,71.6,-33.9,29.93,SW,225,4.7,-999.0,1,-99.99,,,0.00,Acu-Link.com,2013-08-27 03:40:00,
2013-08-26 23:55:00,71.8,-33.7,29.93,West,270,4.7,-999.0,1,-99.99,,,0.00,Acu-Link.com,2013-08-27 03:55:00,